Location: Helsinki
(60.1699°N, 24.9384°E)
Time: 10:37:55
(UTC+02:00)

Vanguard 2 Rocket - Pass Details

Date: 25 September 2023
Orbit: 552 x 3312 km, 32.9° (Epoch: 05 December)

Event Time Altitude Azimuth Distance (km) Brightness Sun altitude
Rises 13:27:17 0° 220° (SW) 6,973 12.2 28.9°
Reaches altitude 10° 13:33:15 10° 208° (SSW) 6,163 12.4 28.8°
Maximum altitude 13:46:51 24° 165° (SSE) 5,110 12.2 28.6°
Drops below altitude 10° 13:59:29 10° 121° (ESE) 5,711 11.3 28.3°
Sets 14:04:39 0° 109° (ESE) 6,375 11.3 28.1°
